Regional Weather Roundup
Issued by NWS

Home | Current Version | Previous Version | Text Only | Print | Product List | Glossary Off
Versions: 1 2 3 4 5 6 7 8 9 10 11 12 13 14 15 16 17 18 19 20 21 22 23 24 25 26 27 28 29 30 31 32 33 34 35 36 37 38 39 40 41 42 43 44 45 46 47 48 49 50

000
ASUS43 KMKX 100721
RWRWI

WISCONSIN REGIONAL WEATHER ROUNDUP
NATIONAL WEATHER SERVICE MILWAUKEE/SULLIVAN WI
100 AM CST WED FEB 10 2016

NOTE: "FAIR" INDICATES FEW OR NO CLOUDS BELOW 12,000 FEET WITH NO
SIGNIFICANT WEATHER AND/OR OBSTRUCTIONS TO VISIBILITY.

WIZ001-002-006>008-014>016-023>028-100800-
NORTHWEST WISCONSIN

CITY           SKY/WX    TMP DP  RH WIND       PRES   REMARKS
SUPERIOR ARPT  CLOUDY    -1  -6  77 CALM      30.14F
ASHLAND        CLOUDY     5   0  79 N12       30.09R WCI -11
HAYWARD        CLOUDY     3  -3  76 VRB5      30.05R WCI  -6
SIREN          CLOUDY     1  -7  70 NW5       30.11F WCI  -9
CUMBERLAND     CLOUDY     1  -8  66 N6        30.07F WCI -10
RICE LAKE      CLOUDY     3  -5  70 NW7       30.10R WCI -10
CHETEK         CLOUDY     1  -7  71 NW5       30.08R WCI  -9
LADYSMITH      CLOUDY     1  -4  79 NW8       30.05R WCI -13
EAU CLAIRE     PTCLDY     4  -7  60 NW9       30.09R WCI -10
MENOMONIE      PTCLDY     4  -7  61 NW10      30.10R WCI -11
NEW RICHMOND   PTCLDY     2  -6  70 NW8       30.11F WCI -12
OSCEOLA        PTCLDY     5  -4  67 N8        30.15F WCI  -9
$$

WIZ003>005-009-010-017-018-100800-
NORTH CENTRAL WISCONSIN

CITY           SKY/WX    TMP DP  RH WIND       PRES   REMARKS
MANITOWISH WTR FLURRIES   4   0  83 NW5       29.92S WCI  -6
ARBOR VITAE    MOCLDY     6   0  75 N8        29.92S WCI  -7
WOODRUFF       MOCLDY     6   0  75 N8        29.92S WCI  -7
RHINELANDER    CLOUDY     6  -5  60 N8G17     29.91S WCI  -7
EAGLE RIVER    CLOUDY     5  -3  68 N14G20    29.90S WCI -12
LAND O LAKES   CLOUDY     5  -1  77 N9G17     29.91S WCI  -9
PHILLIPS       CLOUDY     3  -2  78 NW5       29.96S WCI  -6
TOMAHAWK       CLOUDY     6   1  76 NW7       29.94S WCI  -5
MEDFORD        CLOUDY     5  -2  73 NW8       29.95S WCI  -8
MERRILL        CLOUDY     8   1  74 NW7       29.95S WCI  -4
$$

WIZ029-030-035-036-043>047-100800-
CENTRAL WISCONSIN

CITY           SKY/WX    TMP DP  RH WIND       PRES   REMARKS
WAUSAU         CLOUDY    10   0  63 NW7       29.94S WCI  -1
MOSINEE        CLOUDY     9   1  72 NW8       29.96S WCI  -4
MARSHFIELD     MOCLDY     7  -4  60 NW13      29.96F WCI  -9
STEVENS POINT  CLOUDY     8  -2  62 NW7       29.96F WCI  -3
WAUPACA        CLOUDY    13   2  59 NW8       29.96F WCI   2
WAUTOMA        CLOUDY    11   0  61 NW8       29.99F WCI  -1
WISC RAPIDS    CLOUDY    10  -2  58 N12G21    29.99F WCI  -5
CAMP DOUGLAS   CLOUDY     7   0  74 NW9       30.01F WCI  -7
$$

WIZ011>013-019>022-031-037>040-048>050-100800-
NORTHEAST WISCONSIN

CITY           SKY/WX    TMP DP  RH WIND       PRES   REMARKS
ANTIGO         CLOUDY     7  -2  68 N10       29.90S WCI  -8
SHAWANO        CLOUDY    13   3  64 NW3       29.95F
OCONTO         PTCLDY    10  -2  59 NW7       29.94S WCI  -2
STURGEON BAY   CLOUDY     9   0  66 NW16      29.91S WCI  -9
GREEN BAY      CLEAR      9  -2  61 NW13      29.94S WCI  -7
MANITOWOC      PTCLDY    11   0  61 NW16G24   29.92R WCI  -6
APPLETON       CLOUDY    12  -2  52 NW13      29.92S WCI  -3
CLINTONVILLE   CLOUDY    12  -2  52 N9        29.96S WCI   0
OSHKOSH        PTCLDY    11   0  61 NW9       29.94S WCI  -2
$$

WIZ032>034-041-042-053>061-100800-
SOUTHWEST WISCONSIN

CITY           SKY/WX    TMP DP  RH WIND       PRES   REMARKS
LA CROSSE      CLEAR      3  -7  63 NW8       30.09F WCI -10
SPARTA         PTCLDY     5  -4  66 NW6       30.05F WCI  -6
VIROQUA        CLEAR      4  -6  64 NW10      30.00F WCI -12
BOSCOBEL       PTCLDY     0  -5  79 CALM      30.07F
PRAIRIE DU CHI PTCLDY     7  -4  60 NW5       30.09S WCI  -2
PLATTEVILLE    CLEAR      5  -2  72 NW7       30.03S WCI  -7
$$

WIZ056-057-062-063-064-067-068-100800-
SOUTH CENTRAL WISCONSIN

CITY           SKY/WX    TMP DP  RH WIND       PRES   REMARKS
REEDSBURG      CLOUDY     7   0  72 W7        30.01F WCI  -4
BARABOO/DELLS  CLOUDY     9   0  68 NW6       29.99F WCI  -1
LONE ROCK      PTCLDY     7  -3  64 W8        30.05F WCI  -6
MINERAL POINT  CLEAR      9   0  66 NW6       30.00S WCI  -1
MADISON        CLOUDY    10   0  63 NW16      29.99S WCI  -7
MIDDLETON      CLOUDY    11   3  70 NW8       30.00S WCI  -1
WATERTOWN      CLOUDY    10   1  66 NW10      29.96S WCI  -4
MONROE         CLOUDY     9   1  72 NW8       29.98S WCI  -4
JANESVILLE     CLEAR     12   3  67 N10       29.99R WCI  -1
$$

WIZ051-052-058>065-066-070>072-100800-
SOUTHEAST WISCONSIN

CITY           SKY/WX    TMP DP  RH WIND       PRES   REMARKS
MILWAUKEE      MOCLDY    13   4  67 NW10      29.94R WCI   0
WAUKESHA       CLOUDY    10   1  67 NW14      29.94S WCI  -5
MILWAUKEE/TIMM CLEAR     12   0  57 NW13      29.95S WCI  -3
RACINE         MOCLDY    13   3  64 NW9       29.95R WCI   1
BURLINGTON     MOCLDY     9   0  65 NW14G21   29.95S WCI  -7
KENOSHA        CLEAR     12   3  67 NW12      29.94R WCI  -2
FOND DU LAC    MOCLDY    10   1  67 NW8       29.95S WCI  -2
SHEBOYGAN      PTCLDY    11  -1  58 NW12      29.92R WCI  -3
WEST BEND      CLEAR     10   1  67 NW6G16    29.93R WCI   1
JUNEAU         CLOUDY     9   0  65 NW7       29.96S WCI  -2
$$

LSZ147-162-100800-
LAKE SUPERIOR

STATION/POSITION TIME  TEMP    WIND        PRES    WAVE
                       AIR SEA DIR/SP/G            HT/PER
                 (UTC) (F)     (DEG/KT/KT) (MB)    (FT/S)
DEVILS ISLAND    0700    6     350/ 18/ 22 1020.7F
PORT WING        0600    7      10/  7/ 15 1019.6F
SAXON HARBOR     0640    9                 1017.6F
$$

LMZ867-665-643>646-100800-
LAKE MICHIGAN

STATION/POSITION TIME  TEMP    WIND        PRES    WAVE
                       AIR SEA DIR/SP/G            HT/PER
                 (UTC) (F)     (DEG/KT/KT) (MB)    (FT/S)
CHAMBERS ISLAND  0600   12     310/ 21/ 28 1011.9F
ALGOMA LAKESHORE 0641          320/ 18/ 24   N/A
KEWAUNEE LAKESHO 0600   12     350/ 14/ 18 1011.7S
SHEBOYGAN LAKESH 0700   13     310/ 16/ 21 1014.7R
PORT WASHINGTON  0600   13     310/  9/ 17 1014.6
MILWAUKEE LAKESH 0610   15     300/  7/  9   N/A
KENOSHA   LAKESH 0700   13     310/ 13/ 17 1013.9R
$$

TC  - TEMPERATURE IN CELSIUS
VSB - VISIBILITY IN STATUTE MILES
WCI - WIND CHILL INDEX
HX  - HEAT INDEX




USA.gov is the U.S. government's official web portal to all federal, state and local government web resources and services.